Regional Weather Roundup
Issued by NWS Bismarck, ND

Home | Current Version | Previous Version | Text Only | Print | Product List | Glossary On
Versions: 1 2 3 4 5 6 7 8 9 10 11 12 13 14 15 16 17 18 19 20 21 22 23 24 25 26 27 28 29 30 31 32 33 34 35 36 37 38 39 40 41 42 43 44 45 46 47 48 49 50
000
ASUS43 KBIS 162210
RWRBIS

NWR BROADCAST TEXT
NATIONAL WEATHER SERVICE BISMARCK ND
400 PM CST SAT DEC 16 2017

NOTE: "FAIR" INDICATES FEW OR NO CLOUDS BELOW 12,000 FEET WITH NO
SIGNIFICANT WEATHER AND/OR OBSTRUCTIONS TO VISIBILITY.


CITY           SKY/WX    TMP DP  RH WIND       PRES   REMARKS
WILLISTON      FAIR      34  22  61 W9        29.96R
MINOT          FAIR      38  23  55 W9        29.91R
MINOT AFB      CLOUDY    34  24  67 W6        29.90R
BISMARCK       FAIR      38  31  76 W10       29.97R
DICKINSON      FAIR      33  23  66 NW9       29.95R
GARRISON         N/A     35  27  72 W8        29.94R
HETTINGER ARPT CLOUDY    35  23  61 NW10      29.98R
JAMESTOWN      CLOUDY    35  30  82 N5        29.93R
CARRINGTON     FAIR      36  30  80 CALM      29.95R
HAZEN          FAIR      36  30  80 W8        29.98R
LINTON           N/A     39  30  70 W7        29.98R
MANDAN         FAIR      36  32  87 W8        29.96R
OAKES            N/A     37  34  87 CALM      29.96R
RUGBY          FAIR      36  28  75 W8        29.90R
STANLEY        FAIR      32  25  74 W9        29.94R
TIOGA          FAIR      32  27  80 SW8       29.94R
WATFORD CITY   FAIR      34  23  64 W7        29.96R
$$

CITY           SKY/WX    TMP DP  RH WIND       PRES   REMARKS
GRAND FORKS    MOCLDY    25  22  88 NE5       29.95R WCI  19
GRAND FORKS AF CLEAR     26  21  79 NW5       29.95R
DEVILS LAKE    PTCLDY    28  25  88 SW7       29.93R
FARGO          CLOUDY    31  27  85 CALM      29.97R
CANDO          FAIR      30  30 100 SW6       29.92S
CAVALIER       FAIR      21  19  93 N3        29.94R
GRAFTON        FAIR      23  21  93 S5        29.96R WCI  17
GWINNER          N/A     39  34  81 CALM      29.96R
LANGDON        FAIR      21  21 100 W6        29.90R WCI  14
ROLLA          FAIR      28  28 100 CALM      29.88R
WALHALLA       FAIR      23  23 100 CALM      29.93R
$$

CITY           SKY/WX    TMP DP  RH WIND       PRES   REMARKS
ABERDEEN       CLOUDY    40  32  73 N7        29.96R
MOBRIDGE       CLOUDY    41  31  67 NE9       29.93S
BUFFALO          N/A     36  22  56 N13       29.90R
RAPID CITY     FLURRIES  33  28  81 NW13      29.95R
GLASGOW        PTCLDY    37  20  50 NW13      29.99R
SIDNEY         PTCLDY    36  21  54 W8        29.99R
WOLF POINT     PTCLDY    35  24  64 SW10      30.00R
GLENDIVE       PTCLDY    36  19  50 NW7       30.00R
MILES CITY     CLOUDY    37  24  59 CALM      30.00R
BAKER          CLOUDY    34  27  75 NW8       29.98R
$$

CITY           SKY/WX    TMP DP  RH WIND       PRES   REMARKS
BILLINGS       LGT SNOW  30  30 100 NE7       29.99S FOG
GREAT FALLS    MOSUNNY   33  27  78 S3        29.99S
REGINA         PTCLDY    32  21  64 W18       29.87S
ESTEVAN        PTCLDY    36  19  51 W13       29.90R
$$




USA.gov is the U.S. government's official web portal to all federal, state and local government web resources and services.